TimeART,TemperatureF,Dew PointF,Humidity,Sea Level PressureIn,VisibilityMPH,Wind Direction,Wind SpeedMPH,Gust SpeedMPH,PrecipitationIn,Events,Conditions,WindDirDegrees,DateUTC
12:00 AM,77.0,73.4,89,29.71,-9999.0,West,4.6,-,N/A,,Clear,270,2013-01-08 03:00:00
1:00 AM,75.2,71.6,89,29.71,-9999.0,West,4.6,-,N/A,,Clear,270,2013-01-08 04:00:00
2:00 AM,73.4,69.8,88,29.71,-9999.0,North,4.6,-,N/A,,Clear,360,2013-01-08 05:00:00
3:00 AM,73,71,90,29.62,9,West,4.6,,,,,270,2013-01-08 06:00:00
3:00 AM,73.4,69.8,88,29.71,-9999.0,West,4.6,-,N/A,,Clear,270,2013-01-08 06:00:00
4:00 AM,71.6,68.0,88,29.71,-9999.0,North,4.6,-,N/A,,Clear,360,2013-01-08 07:00:00
5:00 AM,71.6,69.8,94,29.71,-9999.0,North,9.2,-,N/A,,Clear,360,2013-01-08 08:00:00
6:00 AM,71.6,68.0,88,29.71,-9999.0,West,9.2,-,N/A,,Clear,270,2013-01-08 09:00:00
7:00 AM,71.6,66.2,83,29.71,-9999.0,West,6.9,-,N/A,,Clear,270,2013-01-08 10:00:00
8:00 AM,75.2,68.0,78,29.74,-9999.0,NW,6.9,-,N/A,,Clear,320,2013-01-08 11:00:00
9:00 AM,80,69,62,29.65,9,NW,6.9,,,,,320,2013-01-08 12:00:00
9:00 AM,80.6,69.8,70,29.77,-9999.0,NW,6.9,-,N/A,,Clear,320,2013-01-08 12:00:00
10:00 AM,86.0,71.6,62,29.77,6.2,Calm,Calm,-,N/A,,Partly Cloudy,0,2013-01-08 13:00:00
11:00 AM,87.8,73.4,62,29.77,6.2,SW,5.8,-,N/A,,Partly Cloudy,230,2013-01-08 14:00:00
12:00 PM,89.6,73.4,59,29.77,6.2,SW,4.6,-,N/A,,Scattered Clouds,230,2013-01-08 15:00:00
1:00 PM,87.8,75.2,66,29.77,6.2,South,11.5,-,N/A,,Scattered Clouds,180,2013-01-08 16:00:00
2:00 PM,91.4,77.0,63,29.77,6.2,SW,13.8,-,N/A,,Scattered Clouds,230,2013-01-08 17:00:00
3:00 PM,91,76,53,29.64,9,South,10.4,,,,Partly Cloudy,180,2013-01-08 18:00:00
3:00 PM,91.4,75.2,59,29.74,6.2,South,10.4,-,N/A,,Partly Cloudy,180,2013-01-08 18:00:00
4:00 PM,91.4,75.2,59,29.74,6.2,SW,4.6,-,N/A,,Scattered Clouds,230,2013-01-08 19:00:00
5:00 PM,87.8,75.2,66,29.71,6.2,SW,9.2,-,N/A,,Scattered Clouds,230,2013-01-08 20:00:00
6:00 PM,86.0,75.2,70,29.71,6.2,SW,11.5,-,N/A,,Mostly Cloudy,230,2013-01-08 21:00:00
7:00 PM,86.0,75.2,70,29.71,6.2,South,9.2,-,N/A,,Mostly Cloudy,180,2013-01-08 22:00:00
7:10 PM,86.0,75.2,70,29.71,5.6,South,9.2,-,N/A,,Partly Cloudy,180,2013-01-08 22:10:00
8:00 PM,84.2,77.0,79,29.74,6.2,West,4.6,-,N/A,,Partly Cloudy,270,2013-01-08 23:00:00
9:00 PM,83,76,74,29.71,9,South,11.5,,,Thunderstorm,Thunderstorm,180,2013-01-09 00:00:00
9:00 PM,82.4,75.2,79,29.80,6.2,South,11.5,-,N/A,,Scattered Clouds,180,2013-01-09 00:00:00
10:00 PM,71.6,71.6,100,29.89,2.5,South,20.7,25.3,N/A,Rain-Thunderstorm,Heavy Thunderstorms and Rain,180,2013-01-09 01:00:00
11:00 PM,71.6,71.6,100,29.98,3.7,South,9.2,-,N/A,Rain-Thunderstorm,Thunderstorms and Rain,180,2013-01-09 02:00:00